CST,Max TemperatureF,Mean TemperatureF,Min TemperatureF,Max Dew PointF,MeanDew PointF,Min DewpointF,Max Humidity, Mean Humidity, Min Humidity, Max Sea Level PressureIn, Mean Sea Level PressureIn, Min Sea Level PressureIn, Max VisibilityMiles, Mean VisibilityMiles, Min VisibilityMiles, Max Wind SpeedMPH, Mean Wind SpeedMPH, Max Gust SpeedMPH,PrecipitationIn, CloudCover, Events, WindDirDegrees
2013-1-1,22,6,-11,18,8,-17,89,83,78,30.29,30.16,29.99,10,9,7,16,4,16,0.00,7,Snow,179
2013-1-2,30,18,5,27,15,2,92,85,74,30.20,30.00,29.92,10,8,1,20,8,24,0.00,6,Snow,269
2013-1-3,20,10,0,15,6,-4,86,81,75,30.34,30.23,30.08,10,9,3,18,9,29,0.00,2,Snow,277
2013-1-4,27,16,6,19,12,4,90,78,69,30.13,30.08,30.03,10,10,5,18,4,23,0.00,0,,227
2013-1-5,23,12,0,15,6,-4,89,80,69,30.13,29.99,29.89,10,9,4,23,4,28,0.00,1,Snow,296
2013-1-6,23,14,4,17,8,1,90,83,75,30.24,30.14,29.86,10,9,7,24,2,23,0.00,1,,156
2013-1-7,33,26,19,26,21,16,87,77,69,29.97,29.91,29.85,10,10,5,23,8,28,0.00,1,,202
2013-1-8,33,23,13,28,19,11,90,84,77,29.96,29.85,29.71,10,9,5,17,8,21,0.00,3,,164
2013-1-9,33,27,21,27,22,16,84,77,63,30.33,30.19,29.96,10,10,7,26,15,33,0.00,0,,209
2013-1-10,35,32,29,32,28,23,99,82,67,30.19,29.98,29.65,10,8,1,22,17,25,0.09,3,Rain-Snow,139
2013-1-11,34,28,20,34,31,18,98,95,90,29.61,29.46,29.36,10,3,0,25,12,29,0.00,8,Fog-Rain-Snow,143
2013-1-12,19,10,1,17,3,-4,91,76,68,30.12,29.92,29.50,10,8,2,32,21,37,0.00,5,Snow,282
2013-1-13,9,4,0,2,-3,-6,82,75,66,30.26,30.17,30.10,10,10,7,18,13,22,0.00,5,,281
2013-1-14,9,3,-3,5,-2,-8,87,77,67,30.42,30.32,30.25,10,10,10,12,7,,0.00,2,,218
2013-1-15,24,12,0,16,6,-4,87,76,64,30.25,30.08,29.77,10,10,10,17,8,,0.00,1,,176
2013-1-16,34,18,1,32,17,-8,92,80,61,30.30,29.92,29.68,10,9,1,22,14,26,0.00,5,Rain-Snow,275
2013-1-17,24,11,-2,17,4,-10,78,70,60,30.40,30.35,30.20,10,10,10,12,7,,0.00,5,,258
2013-1-18,37,28,18,30,25,13,90,82,70,30.18,29.85,29.75,10,10,7,20,11,24,0.00,1,,195
2013-1-19,38,20,0,31,16,-5,90,79,63,30.34,29.96,29.71,10,10,4,37,14,45,0.00,3,,273
2013-1-20,9,2,-5,4,-5,-15,81,73,63,30.44,30.37,30.34,10,8,1,22,13,26,0.00,4,Snow,292
2013-1-21,0,-6,-13,-10,-15,-20,77,68,62,30.40,30.35,30.31,10,10,10,23,15,29,0.00,0,,277
2013-1-22,6,-4,-14,2,-11,-20,80,72,60,30.38,30.31,30.20,10,10,5,8,4,,0.00,3,Snow,180
2013-1-23,10,0,-9,7,-4,-18,88,74,60,30.62,30.34,30.15,10,8,2,28,10,34,0.00,3,Snow,313
2013-1-24,13,2,-9,7,-7,-18,76,66,59,30.66,30.42,30.09,10,10,10,22,10,26,0.00,3,,120
2013-1-25,21,10,-2,16,2,-7,81,72,62,30.33,30.15,29.98,10,10,10,30,14,37,0.00,2,,285
2013-1-26,22,8,-6,14,2,-10,82,72,60,30.32,30.18,30.00,10,10,10,18,7,25,0.00,0,,109
2013-1-27,32,26,21,31,25,14,96,85,70,29.99,29.85,29.76,10,7,2,16,11,18,0.04,5,Rain-Snow,116
2013-1-28,34,32,31,33,31,30,99,97,92,29.86,29.78,29.64,5,3,0,9,4,,0.01,8,Fog-Rain,132
2013-1-29,31,26,21,31,23,16,98,89,79,29.83,29.71,29.60,10,6,2,23,12,32,0.00,7,Snow,311
2013-1-30,21,10,-2,16,4,-8,82,78,74,29.88,29.82,29.79,10,9,2,26,20,33,0.00,7,Snow,305
2013-1-31,-3,-7,-11,-9,-15,-19,76,71,66,30.34,30.16,29.89,10,8,1,29,20,34,0.00,4,,287